Weather History for Hong Kong Inter-National Airport, Hong Kong

Change the Weather History Date:

Tuesday, July 24, 2012

  Actual Average Record
Temperature  
Mean Temperature 82 °F -  
Max Temperature 85 °F 88 °F - ()
Min Temperature 78 °F 78 °F - ()
Cooling Degree Days 16    
Growing Degree Days 32 (Base 50)    
Moisture  
Dew Point 77 °F    
Average Humidity 86    
Maximum Humidity 94    
Minimum Humidity 79    
Precipitation  
Precipitation 1.14 in - - ()
Sea Level Pressure  
Sea Level Pressure 29.36 in    
Wind  
Wind Speed 32 mph ()    
Max Wind Speed 58 mph    
Max Gust Speed 83 mph    
Visibility 4.8 miles    
Events Rain    
T = Trace of Precipitation, MM = Missing Value Source: Averaged Metar Reports

Daily Weather History Graph

Daily Weather History Graph

Search for Another Location

Airport:

Trip Planner

Search our weather history database for the weather conditions in past years. The results will help you decide how hot, cold, wet, or windy it might be!

Date:

Astronomy

Jul. 24, 2012 Rise Set
Actual Time 5:52 AM HKT 7:08 PM HKT
Civil Twilight 5:28 AM HKT 7:32 PM HKT
Nautical Twilight 4:59 AM HKT 8:01 PM HKT
Astronomical Twilight 4:29 AM HKT 8:31 PM HKT
Moon 10:25 AM HKT (7/24) 10:28 PM HKT (7/24)
Length of Visible Light 14h 04m
Length of Day
13h 15m
Waxing Crescent, 26% of the Moon is Illuminated
Jul 24
Waxing Crescent
Jul 26
First Quarter
Aug 2
Full
Aug 10
Last Quarter
Aug 17
New

Hourly Weather History & Observations

Time (HKT) Temp. Heat Index Dew Point Humidity Pressure Visibility Wind Dir Wind Speed Gust Speed Precip Events Conditions
12:00 AM 80.6 °F 87.1 °F 77.0 °F 89% 29.09 in - East 44.9 mph 62.1 mph N/A Rain Rain Showers
12:05 AM 80.6 °F 87.1 °F 77.0 °F 89% 29.09 in 2.8 mi East 49.5 mph 76.0 mph N/A Rain Rain Showers
12:30 AM 78.8 °F - 77.0 °F 94% 29.06 in 1.3 mi East 49.5 mph 72.5 mph N/A Rain Heavy Rain Showers
1:00 AM 78.8 °F - 77.0 °F 94% 29.03 in - East 57.5 mph 74.8 mph N/A Rain Rain Showers
1:30 AM 78.8 °F - 77.0 °F 94% 29.03 in - East 49.5 mph 64.4 mph N/A Rain Rain Showers
1:37 AM 80.6 °F 87.1 °F 77.0 °F 89% 29.03 in 2.5 mi East 55.2 mph 82.9 mph N/A Rain Heavy Rain Showers
2:00 AM 78.8 °F - 77.0 °F 94% 29.06 in 2.8 mi ESE 46.0 mph 59.8 mph N/A Rain Heavy Rain Showers
2:13 AM 78.8 °F - 77.0 °F 94% 29.06 in - ESE 47.2 mph 72.5 mph N/A Rain Heavy Rain Showers
2:30 AM 80.6 °F 87.1 °F 77.0 °F 89% 29.06 in 3.1 mi ESE 47.2 mph 66.7 mph N/A Rain Heavy Rain Showers
2:38 AM 78.8 °F - 77.0 °F 94% 29.06 in 1.8 mi ESE 44.9 mph 65.6 mph N/A Rain Heavy Rain Showers
3:00 AM 80.6 °F 87.1 °F 77.0 °F 89% 29.09 in 3.1 mi ESE 44.9 mph 65.6 mph N/A Rain Heavy Rain Showers
3:30 AM 80.6 °F 87.1 °F 77.0 °F 89% 29.09 in 4.3 mi SE 41.4 mph 63.3 mph N/A Rain Rain Showers
3:42 AM 78.8 °F - 77.0 °F 94% 29.12 in 1.7 mi ESE 39.1 mph 54.1 mph N/A Rain Heavy Rain Showers
4:00 AM 78.8 °F - 77.0 °F 94% 29.12 in - SE 38.0 mph 59.8 mph N/A Rain Heavy Rain Showers
4:30 AM 80.6 °F 87.1 °F 77.0 °F 89% 29.15 in - SE 35.7 mph 52.9 mph N/A Rain Heavy Rain Showers
5:00 AM 80.6 °F 86.2 °F 75.2 °F 84% 29.18 in 3.7 mi SSE 32.2 mph 55.2 mph N/A Rain Heavy Rain Showers
5:30 AM 80.6 °F 86.2 °F 75.2 °F 84% 29.21 in 3.7 mi SSE 38.0 mph 56.4 mph N/A Rain Rain Showers
6:00 AM 80.6 °F 87.1 °F 77.0 °F 89% 29.24 in - SE 29.9 mph 46.0 mph N/A Rain Rain Showers
6:30 AM 80.6 °F 86.2 °F 75.2 °F 84% 29.27 in 1.7 mi SSE 27.6 mph 47.2 mph N/A Rain Heavy Rain Showers
7:00 AM 80.6 °F 86.2 °F 75.2 °F 84% 29.30 in - SE 34.5 mph 48.3 mph N/A Rain Rain Showers
7:30 AM 80.6 °F 86.2 °F 75.2 °F 84% 29.33 in 3.7 mi SE 26.5 mph 38.0 mph N/A Rain Rain Showers
7:39 AM 80.6 °F 86.2 °F 75.2 °F 84% 29.33 in 1.8 mi SE 35.7 mph 47.2 mph N/A Rain Rain Showers
8:00 AM 80.6 °F 87.1 °F 77.0 °F 89% 29.36 in 6.2 mi SSE 29.9 mph 44.9 mph N/A Rain Rain Showers
8:11 AM 80.6 °F 86.2 °F 75.2 °F 84% 29.36 in - SSE 33.4 mph 51.8 mph N/A Rain Rain Showers
8:30 AM 80.6 °F 86.2 °F 75.2 °F 84% 29.36 in 3.7 mi SSE 28.8 mph 47.2 mph N/A Rain Heavy Rain Showers
9:00 AM 78.8 °F - 77.0 °F 94% 29.39 in 1.6 mi SSE 27.6 mph 42.6 mph N/A Rain Heavy Rain Showers
9:30 AM 80.6 °F 87.1 °F 77.0 °F 89% 29.39 in 1.9 mi SSE 27.6 mph 40.3 mph N/A Rain Heavy Rain Showers
10:00 AM 82.4 °F 89.5 °F 75.2 °F 79% 29.42 in 6.2 mi SE 28.8 mph 42.6 mph N/A Rain Rain Showers
10:30 AM 82.4 °F 90.9 °F 77.0 °F 84% 29.42 in 6.2 mi SE 28.8 mph 42.6 mph N/A   Scattered Clouds
11:00 AM 82.4 °F 90.9 °F 77.0 °F 84% 29.44 in 6.2 mi SE 24.2 mph 39.1 mph N/A Rain Light Rain Showers
11:30 AM 82.4 °F 90.9 °F 77.0 °F 84% 29.44 in 3.1 mi SSE 23.0 mph 39.1 mph N/A Rain Rain Showers
12:00 PM 82.4 °F 90.9 °F 77.0 °F 84% 29.44 in 6.2 mi SE 27.6 mph 51.8 mph N/A Rain Rain Showers
12:04 PM 82.4 °F 90.9 °F 77.0 °F 84% 29.44 in 2.2 mi SSE 32.2 mph 51.8 mph N/A Rain Rain Showers
12:15 PM 82.4 °F 90.9 °F 77.0 °F 84% 29.44 in 3.1 mi SSE 28.8 mph - N/A Rain Rain Showers
12:30 PM 82.4 °F 90.9 °F 77.0 °F 84% 29.44 in 6.2 mi SSE 25.3 mph 38.0 mph N/A Rain Rain Showers
12:40 PM 84.2 °F 94.1 °F 77.0 °F 79% 29.44 in 6.2 mi SSE 24.2 mph 35.7 mph N/A Rain Light Rain Showers
1:00 PM 82.4 °F 90.9 °F 77.0 °F 84% 29.44 in 6.2 mi SE 25.3 mph 39.1 mph N/A Rain Light Rain Showers
1:30 PM 82.4 °F 90.9 °F 77.0 °F 84% 29.44 in 6.2 mi SE 20.7 mph 33.4 mph N/A Rain Light Rain Showers
2:00 PM 84.2 °F 94.1 °F 77.0 °F 79% 29.44 in 6.2 mi SE 16.1 mph - N/A Rain Light Rain Showers
2:30 PM 84.2 °F 94.1 °F 77.0 °F 79% 29.44 in 6.2 mi SE 17.3 mph - N/A   Scattered Clouds
3:00 PM 84.2 °F 94.1 °F 77.0 °F 79% 29.47 in 6.2 mi SE 18.4 mph - N/A   Scattered Clouds
3:08 PM 84.2 °F 94.1 °F 77.0 °F 79% 29.47 in 6.2 mi SE 21.9 mph 34.5 mph N/A Rain Rain Showers
3:18 PM 84.2 °F 94.1 °F 77.0 °F 79% 29.47 in 6.2 mi SE 18.4 mph 34.5 mph N/A   Scattered Clouds
3:30 PM 84.2 °F 94.1 °F 77.0 °F 79% 29.47 in 6.2 mi SSE 19.6 mph 31.1 mph N/A   Scattered Clouds
4:00 PM 84.2 °F 94.1 °F 77.0 °F 79% 29.47 in 6.2 mi SSE 18.4 mph - N/A   Scattered Clouds
4:30 PM 84.2 °F 94.1 °F 77.0 °F 79% 29.47 in 6.2 mi SE 20.7 mph - N/A   Scattered Clouds
5:00 PM 82.4 °F 90.9 °F 77.0 °F 84% 29.47 in 6.2 mi ESE 17.3 mph - N/A   Scattered Clouds
5:30 PM 82.4 °F 90.9 °F 77.0 °F 84% 29.47 in 6.2 mi ESE 19.6 mph - N/A Rain Light Rain Showers
6:00 PM 82.4 °F 90.9 °F 77.0 °F 84% 29.50 in 6.2 mi ESE 18.4 mph - N/A Rain Light Rain Showers
6:30 PM 82.4 °F 90.9 °F 77.0 °F 84% 29.50 in 6.2 mi ESE 16.1 mph - N/A Rain Light Rain Showers
6:33 PM 80.6 °F 87.1 °F 77.0 °F 89% 29.50 in 5.0 mi ESE 16.1 mph - N/A Rain Rain Showers
6:50 PM 82.4 °F 90.9 °F 77.0 °F 84% 29.50 in 6.2 mi ESE 20.7 mph - N/A   Scattered Clouds
7:00 PM 82.4 °F 90.9 °F 77.0 °F 84% 29.50 in 6.2 mi ESE 18.4 mph - N/A Rain Light Rain Showers
7:30 PM 80.6 °F 87.1 °F 77.0 °F 89% 29.53 in 5.6 mi ESE 19.6 mph - N/A Rain Light Rain Showers
8:00 PM 81 °F - 78 °F 86% 29.56 in 7 mi ESE 22.4 mph - - Rain Light Rain Showers
8:00 PM 80.6 °F 87.1 °F 77.0 °F 89% 29.53 in 6.2 mi ESE 21.9 mph - N/A Rain Light Rain Showers
8:30 PM 82.4 °F 90.9 °F 77.0 °F 84% 29.56 in 5.6 mi ESE 24.2 mph - N/A Rain Light Rain Showers
9:00 PM 80.6 °F 87.1 °F 77.0 °F 89% 29.56 in 6.2 mi ESE 18.4 mph - N/A Rain Light Rain Showers
9:30 PM 80.6 °F 87.1 °F 77.0 °F 89% 29.56 in 6.2 mi ESE 20.7 mph - N/A Rain Light Rain Showers
10:00 PM 80.6 °F 87.1 °F 77.0 °F 89% 29.59 in 5.0 mi ESE 20.7 mph - N/A Rain Rain Showers
10:30 PM 80.6 °F 87.1 °F 77.0 °F 89% 29.59 in 6.2 mi ESE 18.4 mph - N/A Rain Rain Showers
11:00 PM 80.6 °F 87.1 °F 77.0 °F 89% 29.59 in 6.2 mi ESE 19.6 mph - N/A Rain Light Rain Showers
11:30 PM 80.6 °F 87.1 °F 77.0 °F 89% 29.59 in 6.2 mi ESE 19.6 mph - N/A   Scattered Clouds